Starlink 4071

operational
NORAD ID: 52671 Int'l Des: 2022-053 Owner: SPXS Country: US Constellation: starlink
LEOCIRCULAR

Starlink 4071について

説明を読み込み中...

リアルタイム位置

3D地球を読み込み中...

次回通過

高度履歴

Altitude vs Time

uPlot chart will show altitude changes over time

軌道要素

1 52671U 22053R 26063.47665936 .00000695 00000-0 61784-4 0 9996
2 52671 53.2176 177.5241 0001209 83.1315 276.9815 15.08835527210259
Epoch: Mar 4, 2026 • Age: 21 hours

現在のステータス

高度 555.7 km
速度 7.58 km/s
衛星直下点 -45.10°S, 14.34°E
打ち上げ日 May 18, 2022
運用期間 3.7 years
タイプ internet

技術仕様

分類 Payload
質量 297.00 kg
乾燥質量 275.00 kg
総質量 297.00 kg
長さ 0.20 m
直径 2.80 m
スパン 9.00 m
形状 Box + pan
製造者 SPXS
バスタイプ Starlink
フェーズステータス In Orbit
所有者/国 SPXS/US

大規模コンステレーション

Loading constellations...